Weather History for KMMU - June, 2014

Change the Weather History Date:

Wednesday, June 11, 2014

  Actual Average Record
Temperature  
Mean Temperature 66 °F -  
Max Temperature 71 °F 81 °F 96 °F (1984)
Min Temperature 62 °F 54 °F 35 °F (1932)
Cooling Degree Days 2    
Growing Degree Days 16 (Base 50)    
Moisture  
Dew Point 62 °F    
Average Humidity 82    
Maximum Humidity 94    
Minimum Humidity 68    
Precipitation  
Precipitation 0.02 in - - ()
Sea Level Pressure  
Sea Level Pressure 30.06 in    
Wind  
Wind Speed 5 mph (East)    
Max Wind Speed 12 mph    
Max Gust Speed 16 mph    
Visibility 8 miles    
Events Rain    
Averages and records for this station are not official NWS values.
T = Trace of Precipitation, MM = Missing Value Source: NWS Daily Summary

Daily Weather History Graph

Daily Weather History Graph

Search for Another Location

Airport or City:

Trip Planner

Search our weather history database for the weather conditions in past years. The results will help you decide how hot, cold, wet, or windy it might be!

Date:

Astronomy

Jun. 11, 2014 Rise Set
Actual Time 5:25 AM EDT 8:29 PM EDT
Civil Twilight 4:52 AM EDT 9:02 PM EDT
Nautical Twilight 4:10 AM EDT 9:44 PM EDT
Astronomical Twilight 3:20 AM EDT 10:34 PM EDT
Moon 6:55 PM EDT (6/11) 4:14 AM EDT (6/11)
Length of Visible Light 16h 09m
Length of Day
15h 03m
Waxing Gibbous, 97% of the Moon is Illuminated
Jun 11
Waxing Gibbous
Jun 13
Full
Jun 19
Last Quarter
Jun 27
New
Jul 5
First Quarter

Hourly Weather History & Observations

Time (EDT) Temp. Dew Point Humidity Pressure Visibility Wind Dir Wind Speed Gust Speed Precip Events Conditions
12:15 AM 69.8 °F 66.2 °F 88% 29.99 in 5.0 mi Calm Calm - N/A   Scattered Clouds
12:35 AM 69.8 °F 66.2 °F 88% 29.99 in 4.0 mi Calm Calm - N/A   Scattered Clouds
12:55 AM 69.8 °F 66.2 °F 88% 29.99 in 3.0 mi NNE 4.6 mph - N/A   Mostly Cloudy
1:15 AM 71.6 °F 68.0 °F 88% 29.99 in 4.0 mi NNE 4.6 mph - N/A   Overcast
1:35 AM 71.6 °F 68.0 °F 88% 30.00 in 5.0 mi NNE 3.5 mph - N/A   Overcast
1:55 AM 71.6 °F 68.0 °F 88% 30.00 in 7.0 mi NE 4.6 mph - N/A   Overcast
2:15 AM 71.6 °F 66.2 °F 83% 30.00 in 7.0 mi ENE 6.9 mph - N/A   Overcast
2:35 AM 71.6 °F 66.2 °F 83% 30.00 in 10.0 mi ENE 8.1 mph - N/A   Overcast
2:55 AM 71.6 °F 66.2 °F 83% 30.00 in 5.0 mi ENE 4.6 mph - N/A   Overcast
3:15 AM 68.0 °F 64.4 °F 88% 30.01 in 7.0 mi ENE 8.1 mph - N/A   Overcast
3:35 AM 68.0 °F 64.4 °F 88% 30.02 in 3.0 mi ENE 5.8 mph - N/A Rain Light Rain
3:55 AM 68.0 °F 64.4 °F 88% 30.02 in 4.0 mi East 6.9 mph - N/A   Light Drizzle
4:15 AM 66.2 °F 62.6 °F 88% 30.02 in 4.0 mi ENE 6.9 mph - N/A   Light Drizzle
4:35 AM 66.2 °F 62.6 °F 88% 30.03 in 7.0 mi ENE 3.5 mph - N/A   Overcast
4:55 AM 66.2 °F 62.6 °F 88% 30.04 in 7.0 mi ENE 5.8 mph - N/A   Overcast
5:15 AM 66.2 °F 62.6 °F 88% 30.04 in 10.0 mi ENE 5.8 mph - N/A   Overcast
5:35 AM 66.2 °F 60.8 °F 83% 30.04 in 10.0 mi East 6.9 mph - N/A   Overcast
5:55 AM 66.2 °F 60.8 °F 83% 30.05 in 10.0 mi ENE 6.9 mph - 0.01 in Rain Light Rain
6:15 AM 64.4 °F 60.8 °F 88% 30.07 in 10.0 mi ENE 3.5 mph - 0.01 in   Light Drizzle
6:35 AM 66.2 °F 59.0 °F 78% 30.08 in 10.0 mi ENE 4.6 mph - 0.01 in   Overcast
6:45 AM 64.4 °F 60.8 °F 88% 30.09 in 4.0 mi East 6.9 mph - N/A   Overcast
7:45 AM 64.4 °F 60.8 °F 88% 30.09 in 7.0 mi ENE 9.2 mph - N/A   Overcast
8:45 AM 64.4 °F 59.0 °F 83% 30.12 in 5.0 mi East 6.9 mph - N/A   Overcast
9:15 AM 62.6 °F 59.0 °F 88% 30.13 in 2.0 mi East 5.8 mph - N/A   Overcast
9:45 AM 62.6 °F 60.8 °F 94% 30.11 in 2.0 mi East 11.5 mph 16.1 mph N/A   Overcast
10:45 AM 62.6 °F 59.0 °F 88% 30.12 in 4.0 mi East 10.4 mph - N/A   Overcast
12:45 PM 68.0 °F 60.8 °F 78% 30.11 in 10.0 mi NE 11.5 mph - N/A   Overcast
1:45 PM 68.0 °F 59.0 °F 73% 30.11 in 10.0 mi ENE 6.9 mph - N/A   Overcast
2:45 PM 69.8 °F 59.0 °F 68% 30.10 in 10.0 mi East 10.4 mph - N/A   Overcast
3:45 PM 69.8 °F 59.0 °F 68% 30.09 in 10.0 mi East 8.1 mph - N/A   Overcast
4:45 PM 69.8 °F 59.0 °F 68% 30.09 in 10.0 mi East 8.1 mph - N/A   Overcast
5:45 PM 69.8 °F 60.8 °F 73% 30.06 in 10.0 mi East 8.1 mph - N/A   Overcast
6:45 PM 68.0 °F 60.8 °F 78% 30.16 in 10.0 mi SE 6.9 mph - N/A   Overcast
7:45 PM 66.2 °F 60.8 °F 83% 30.07 in 10.0 mi South 10.4 mph - N/A   Overcast
8:45 PM 64.4 °F 59.0 °F 83% 30.07 in 10.0 mi South 4.6 mph - N/A   Overcast
9:45 PM 64.4 °F 59.0 °F 83% 30.10 in 10.0 mi SSE 3.5 mph - N/A   Overcast
10:15 PM 66.2 °F 57.2 °F 73% 30.10 in 10.0 mi Calm Calm - N/A   Overcast
10:35 PM 66.2 °F 57.2 °F 73% 30.10 in 10.0 mi Calm Calm - N/A   Overcast
10:55 PM 64.4 °F 57.2 °F 77% 30.10 in 10.0 mi Calm Calm - N/A   Overcast
11:15 PM 64.4 °F 57.2 °F 77% 30.10 in 10.0 mi Calm Calm - N/A   Overcast
11:35 PM 64.4 °F 57.2 °F 77% 30.09 in 10.0 mi ESE 4.6 mph - N/A   Overcast
11:55 PM 64.4 °F 57.2 °F 77% 30.10 in 10.0 mi Calm Calm - N/A   Overcast